Find Arabsat 1B

NORAD ID: 15825 Int'l Des: 1985-048 Owner: ARAB Country: I-ARAB operational
MEOCIRCULAR

Aktuelle Ansicht

3D-Globus wird geladen...

Über Arabsat 1B

Beschreibung wird geladen...

Nächste Überflüge

Passes for default location (London). Set your location on the main map for personalized predictions.

Höhenverlauf

Loading altitude history...

Zweizeiliger Elementsatz

1 15825U 85048C 26151.45045139 -.00000349 00000-0 00000+0 0 9998
2 15825 12.3967 334.2398 0015356 29.5217 150.8778 1.00429907135264
Epoch: 31. Mai 2026 • Age: 11 hours

Aktueller Status

Höhe 35700.4 km
Geschwindigkeit 3.08 km/s
Subsatellitenpunkt -4.10°S, 104.06°E
Startdatum 17. Juni 1985
Alter 40.9 years
Typ other

Technische Details

Klassifizierung Payload
Masse 1270.00 kg
Trockenmasse 592.00 kg
Gesamtmasse 1270.00 kg
Länge 2.30 m
Durchmesser 1.50 m
Spannweite 20.70 m
Form Box + Pan + Ant
Hersteller AESPC/FORDA
Bus-Typ Spacebus 100
Phasenstatus In Orbit
Besitzer/Staat ARAB/I-ARAB

Most Searched